Regional Weather Roundup
Issued by NWS

Home | Current Version | Previous Version | Graphics & Text | Print | Product List | Glossary On
Versions: 1 2 3 4 5 6 7 8 9 10 11 12 13 14 15 16 17 18 19 20 21 22 23 24 25 26 27 28 29 30 31 32 33 34 35 36 37 38 39 40 41 42 43 44 45 46 47 48 49 50
000
ASUS43 KMKX 191021
RWRWI

WISCONSIN REGIONAL WEATHER ROUNDUP
NATIONAL WEATHER SERVICE MILWAUKEE/SULLIVAN WI
500 AM CDT FRI SEP 19 2014

NOTE: "FAIR" INDICATES FEW OR NO CLOUDS BELOW 12,000 FEET WITH NO
SIGNIFICANT WEATHER AND/OR OBSTRUCTIONS TO VISIBILITY.

WIZ001-002-006>008-014>016-023>028-191100-
NORTHWEST WISCONSIN

CITY           SKY/WX    TMP DP  RH WIND       PRES   REMARKS
SUPERIOR ARPT  FOG       44  44 100 CALM      29.92F VSB 3/4
ASHLAND        CLOUDY    55  51  86 S10G18    29.96F
HAYWARD        MOCLDY    54  51  90 S9        29.98F
SIREN          MOCLDY    58  52  83 S12G17    29.95S
RICE LAKE      MOCLDY    52  50  93 SE8       30.00F FOG
LADYSMITH      MOCLDY    53  51  94 S8        30.04F
EAU CLAIRE     MOCLDY    53  51  93 SE8       30.02S
MENOMONIE      PTSUNNY   52  51  97 E7        30.00F FOG
NEW RICHMOND   PTCLDY    56  52  86 S10       29.97S
OSCEOLA        PTCLDY    58  55  87 S9        29.99R
$$

WIZ003>005-009-010-017-018-191100-
NORTH CENTRAL WISCONSIN

CITY           SKY/WX    TMP DP  RH WIND       PRES   REMARKS
WOODRUFF       CLOUDY    52  50  93 S10       30.06R FOG
RHINELANDER    CLOUDY    50  50 100 S7        30.09S FOG
EAGLE RIVER    CLOUDY    50  50 100 S7        30.07S FOG
LAND O LAKES   CLOUDY    50  50  98 S7        30.07S FOG
PHILLIPS       MOCLDY    51  50  97 S9        30.03F
TOMAHAWK       CLOUDY    50  49  97 CALM      30.08S FOG
MEDFORD        CLOUDY    50  49  98 S8        30.07R FOG
MERRILL        MOCLDY    51  51 100 S3        30.09S FOG
$$

WIZ029-030-035-036-043>047-191100-
CENTRAL WISCONSIN

CITY           SKY/WX    TMP DP  RH WIND       PRES   REMARKS
WAUSAU         MOCLDY    50  49  96 SE5       30.08S FOG
MOSINEE        CLOUDY    48  48 100 SE3       30.10S FOG
MARSHFIELD     CLOUDY    51  50  96 S7        30.08S FOG
STEVENS POINT  CLOUDY    48  48 100 SE3       30.10F FOG
WAUPACA        FOG       47  46  96 CALM      30.12F VSB 1/4
WAUTOMA        FOG       50  50 100 S7        30.12F VSB 1
WISC RAPIDS    PTCLDY    49  48  97 S6        30.10F FOG
CAMP DOUGLAS   PTCLDY    46  46 100 SE5       30.09S FOG
$$

WIZ011>013-019>022-031-037>040-048>050-191100-
NORTHEAST WISCONSIN

CITY           SKY/WX    TMP DP  RH WIND       PRES   REMARKS
ANTIGO         FOG       47  47 100 S7        30.11R VSB 1/4
STURGEON BAY   CLOUDY    55  52  88 S10       30.14S
GREEN BAY      CLOUDY    48  48 100 S7        30.13F
MANITOWOC      CLOUDY    51  51 100 S6        30.15S
APPLETON       FOG       50  48  93 S8        30.13F VSB 1
CLINTONVILLE   FOG       43  43 100 CALM      30.11S VSB 1/2
OSHKOSH        CLOUDY    53  52  96 S10       30.11F FOG
$$

WIZ032>034-041-042-053>061-191100-
SOUTHWEST WISCONSIN

CITY           SKY/WX    TMP DP  RH WIND       PRES   REMARKS
LA CROSSE      MOCLDY    57  52  83 SE9       30.04F
SPARTA         PTCLDY    55  50  82 S12G17    30.07S
VIROQUA        FAIR      51  51 100 SE9       30.07F
BOSCOBEL       CLEAR     53  49  86 CALM      30.09F
PRAIRIE DU CHI PTCLDY    53  51  91 CALM      30.08S FOG
PLATTEVILLE    FAIR      49  48  97 CALM      30.11F
$$

WIZ056-057-062-063-064-067-068-191100-
SOUTH CENTRAL WISCONSIN

CITY           SKY/WX    TMP DP  RH WIND       PRES   REMARKS
BARABOO/DELLS  PTCLDY    48  46  95 S3        30.11F FOG
LONE ROCK      PTCLDY    52  47  83 E8        30.11F HAZE
WATERTOWN      FOG       53  53 100 CALM      30.14S VSB 1/4
MADISON        CLOUDY    54  52  93 S9        30.13F FOG
MIDDLETON      CLOUDY    55  54  98 S6        30.14R
MONROE         FOG       52  52 100 SE6       30.13S VSB 1/2
JANESVILLE     CLOUDY    55  54  94 SE8       30.13S FOG
$$

WIZ051-052-058>065-066-070>072-191100-
SOUTHEAST WISCONSIN

CITY           SKY/WX    TMP DP  RH WIND       PRES   REMARKS
MILWAUKEE      PTCLDY    54  52  93 SE3       30.15R FOG
WAUKESHA       FOG       48  48 100 CALM      30.16R VSB 1/2
MILWAUKEE/TIMM CLEAR     46  45  93 CALM      30.16S FOG
RACINE         CLEAR     59  55  87 S7        30.17R
BURLINGTON     FOG       51  51 100 CALM      30.16R VSB 1/4
KENOSHA        CLEAR     55  55 100 SE5       30.16R
FOND DU LAC    CLOUDY    55  53  93 S8        30.13F
SHEBOYGAN      PTCLDY    49  47  93 S3        30.14F
WEST BEND      PTCLDY    46  46 100 CALM      30.15F FOG
JUNEAU         FOG       53  53  99 SE7       30.15F VSB<1/4
$$

LSZ147-162-191100-
LAKE SUPERIOR

STATION/POSITION TIME  TEMP    WIND        PRES    WAVE
                       AIR SEA DIR/SP/G            HT/PER
                 (UTC) (F)     (DEG/KT/KT) (MB)    (FT/S)
W MID LAKE BUOY  0950   53 48  190/ 14/ 17 1014.3F   1/ 2
DEVILS ISLAND    1000   55     200/ 11/ 15 1013.9F
PORT WING        0900   47      CALM  /  2 1013.9F
SAXON HARBOR     0900   57     190/  7/ 13 1014.9
$$

LMZ867-665-643>646-191100-
LAKE MICHIGAN

STATION/POSITION TIME  TEMP    WIND        PRES    WAVE
                       AIR SEA DIR/SP/G            HT/PER
                 (UTC) (F)     (DEG/KT/KT) (MB)    (FT/S)
N MID LAKE BUOY  0950   56 58  190/ 17/ 21 1020.7F   3/ 4
NORTHPORT PIER   0900   52     160/  3/  4 1020.7S
SISTER BAY       0742   50        CALM       N/A
KEWAUNEE LAKESHO 1000   52     180/  4/  5 1019.7F
SHEBOYGAN LAKESH 1000   56 52  160/ 13/ 13 1021.2F
PORT WASHINGTON  0940   58      CALM  /  3 1021.7S
ATWATER BUOY     1000   59     180/  4/  6 1021.9R
MILWAUKEE LAKESH 1000   59     190/  4/  5   N/A
S MID LAKE BUOY  0950   62 62  160/ 16/ 19 1021.4R   3/ 4
KENOSHA   LAKESH 1000   62     160/ 12/ 13 1020.7R
$$

TC  - TEMPERATURE IN CELSIUS
VSB - VISIBILITY IN STATUTE MILES
WCI - WIND CHILL INDEX
HX  - HEAT INDEX




USA.gov is the U.S. government's official web portal to all federal, state and local government web resources and services.